Wind_Speed
34 33 33 32 32 32 32 33 32 32 32 32 32 32 32 32 32 32 32 33 34 35 36 39 44 48 50 47 43 45 48 44 41 43 45 47 48 47 47 45 45 45 45 44 43 42 40 39 39 39 39 39 37 37 36 36 36 36 36 36 35 35 34
34 34 34 33 33 32 33 33 33 33 33 33 33 33 33 33 33 33 33 33 34 35 36 37 41 46 51 52 47 47 50 48 44 43 45 47 49 50 49 48 47 46 46 46 46 45 44 43 43 44 43 43 42 40 38 39 40 40 40 40 40 39 38
34 34 34 34 34 33 33 33 34 34 34 34 34 34 34 34 34 34 34 35 35 35 36 36 39 43 49 54 52 50 52 52 48 46 46 48 49 51 52 52 50 50 49 48 48 47 46 46 46 46 46 47 46 44 44 44 43 41 41 42 42 42 41
36 36 35 35 35 35 34 34 35 35 35 35 35 35 35 35 35 35 35 36 36 36 37 37 38 41 46 52 54 52 53 55 53 50 48 48 50 52 54 55 54 53 52 51 51 50 49 49 49 48 47 48 47 46 47 47 46 44 43 43 44 44 43
37 37 36 36 36 36 36 36 36 36 37 37 37 36 36 36 36 36 37 37 37 37 37 38 38 39 43 48 52 53 54 56 57 56 53 51 51 52 53 56 57 56 54 52 52 53 52 52 52 52 50 49 49 49 49 49 49 49 48 47 46 45 45
39 38 37 37 37 37 38 38 38 38 38 38 38 38 38 37 37 37 38 38 39 39 39 39 39 39 41 45 49 53 55 57 59 60 58 56 55 55 55 55 57 59 58 54 52 53 54 55 55 55 55 54 54 54 53 53 53 53 53 52 50 49 47
40 40 40 39 39 39 39 39 39 40 40 40 40 40 39 39 39 39 39 39 40 40 40 40 40 40 41 43 47 51 54 58 60 60 61 60 59 59 59 59 58 60 61 60 57 55 53 54 55 56 57 57 57 57 57 57 57 57 57 56 54 53 51
42 42 42 42 42 41 41 41 41 41 42 42 41 41 41 41 41 41 41 41 41 41 42 42 42 42 42 43 45 48 52 57 60 61 62 62 61 61 62 62 62 62 62 63 62 61 58 55 55 55 57 58 58 59 59 59 59 59 58 58 57 56 54
44 44 44 44 44 44 43 43 42 43 43 44 44 43 43 42 43 42 42 42 42 43 43 43 43 43 44 44 45 47 50 54 58 61 63 63 62 63 63 64 65 64 64 65 65 66 64 62 59 58 57 57 58 60 60 61 61 61 61 61 60 59 58
46 46 46 46 46 46 46 46 45 44 44 45 45 45 45 44 44 44 44 44 44 44 44 45 45 45 46 46 47 47 49 51 55 59 62 64 64 64 64 65 66 66 66 66 67 68 68 68 66 65 63 62 61 62 63 64 66 65 65 64 64 63 62
49 49 49 49 48 48 48 48 48 47 46 46 46 47 46 46 46 46 46 46 46 46 46 47 47 48 48 49 49 49 50 51 53 56 59 62 64 65 66 66 68 69 68 67 67 68 70 71 71 71 70 69 68 67 67 68 70 70 68 68 67 66 64
51 51 51 51 52 51 51 50 50 50 49 49 48 48 48 48 48 49 49 49 49 49 49 49 49 50 50 51 51 51 52 52 53 54 56 59 61 64 66 67 68 70 71 70 69 68 69 71 72 72 73 73 73 73 73 72 72 73 71 70 69 67 66
53 53 53 54 54 54 53 53 52 52 52 52 51 51 51 50 50 51 51 52 52 52 52 52 52 52 53 53 54 54 54 55 55 56 56 58 59 61 63 65 67 69 71 72 72 71 70 70 71 72 73 73 73 73 73 72 72 72 72 71 71 69 68
55 55 55 56 56 56 56 55 55 54 54 54 54 54 54 54 54 54 53 54 54 55 55 55 55 56 56 57 57 57 57 58 58 59 58 59 59 60 61 62 64 66 69 70 72 72 72 72 72 72 73 74 74 74 73 72 72 72 73 72 72 71 70
59 59 58 58 58 58 58 57 57 57 57 57 57 57 57 58 58 57 57 57 57 57 57 58 59 59 60 60 61 61 61 61 61 62 62 61 61 61 62 62 63 64 66 68 70 71 72 73 73 73 73 73 74 75 75 74 73 73 74 75 75 74 73
63 63 63 63 62 60 59 59 59 59 59 59 59 60 60 60 61 61 61 60 60 60 61 61 62 63 63 64 64 64 64 64 64 64 64 64 64 64 64 65 65 65 66 67 68 69 70 71 72 73 73 73 73 73 73 74 74 73 74 75 76 76 76
66 66 67 67 66 64 63 62 61 61 61 61 61 62 62 63 64 64 64 64 64 65 65 65 65 66 66 67 67 67 67 66 66 66 66 66 66 67 67 67 67 68 68 68 68 69 69 70 71 72 72 73 73 72 72 72 72 73 73 75 76 76 75
66 67 68 69 69 68 67 65 65 64 63 63 63 64 64 65 66 67 67 68 68 69 69 69 69 69 69 70 70 70 69 69 69 68 68 68 68 68 68 69 69 69 70 70 70 70 71 71 72 72 73 73 73 73 73 73 73 73 74 75 77 77 76
65 66 68 69 71 71 69 68 68 67 66 65 65 66 67 68 68 69 70 70 71 72 73 73 73 73 73 73 73 72 72 72 72 72 71 71 71 70 70 70 70 70 71 71 72 72 73 73 73 74 74 75 74 74 74 74 74 74 74 75 77 78 77
65 65 66 68 70 71 70 70 70 70 69 67 68 69 70 71 71 72 72 73 74 75 76 77 77 76 75 75 75 75 75 75 75 75 75 74 74 73 73 73 73 72 72 73 73 74 74 74 75 76 76 76 76 76 76 76 76 75 76 76 78 79 79
65 65 65 67 68 69 70 70 70 70 68 68 70 71 71 72 74 75 76 76 77 78 79 80 79 79 78 78 79 79 79 78 78 78 78 77 77 77 76 76 76 75 75 75 75 75 75 76 76 77 77 77 77 77 77 78 78 78 78 78 79 80 80
66 65 65 66 66 67 68 69 69 69 67 67 69 70 72 75 76 77 79 81 81 83 83 83 81 80 80 81 82 82 81 81 81 81 81 81 80 80 80 80 79 79 78 78 78 78 78 78 78 78 79 79 78 78 78 79 79 79 79 79 80 81 82
68 67 66 66 66 67 67 67 68 68 68 68 69 69 73 77 77 78 82 85 85 86 86 85 83 82 82 83 84 84 84 84 84 84 83 84 83 83 83 83 83 83 82 82 82 81 81 81 81 81 81 81 80 80 80 80 80 80 80 80 81 82 83
69 69 69 68 68 68 68 67 67 68 68 70 71 71 74 76 76 78 81 83 85 87 88 88 86 84 84 85 85 86 86 86 86 86 86 86 86 86 86 86 86 86 86 86 85 85 85 85 84 84 84 84 84 83 83 83 83 83 83 83 83 83 84
71 71 71 70 70 69 69 68 69 68 69 71 73 74 76 77 78 79 80 81 83 85 87 89 89 89 88 88 88 88 87 87 88 88 88 88 88 89 88 88 89 89 89 89 88 88 88 87 87 87 87 87 86 86 86 86 87 87 86 86 86 86 87
72 72 72 72 72 71 71 70 70 70 70 71 73 75 78 80 81 82 83 84 84 84 85 86 88 90 91 91 91 90 90 90 90 90 90 89 90 90 90 90 91 91 91 90 90 90 90 89 90 90 89 89 89 89 90 90 90 90 90 90 89 89 90
74 73 73 73 73 72 72 72 72 72 72 72 73 75 78 81 83 85 86 88 88 87 87 87 87 88 89 91 92 93 93 93 93 92 92 92 92 92 92 92 92 92 92 92 92 91 91 91 91 91 91 91 91 92 92 93 93 93 93 93 92 92 93
74 73 73 73 73 73 73 74 74 74 74 73 74 76 78 80 82 85 88 90 91 91 90 90 90 90 90 90 91 93 94 95 95 96 96 96 95 95 95 94 94 94 94 93 93 93 92 92 92 92 93 93 93 93 93 94 94 94 94 94 94 94 95
74 74 74 73 73 73 74 74 75 75 75 75 74 76 78 79 81 83 86 88 90 92 93 93 94 94 93 92 92 92 93 94 95 96 97 97 98 98 99 98 97 97 96 96 96 95 94 94 93 93 93 93 94 94 94 95 96 96 96 95 95 96 97
75 74 74 74 74 74 74 75 75 75 76 76 76 76 77 78 80 81 83 85 87 89 92 94 95 95 94 94 94 94 94 94 94 94 94 94 95 96 98 99 99 99 99 99 99 99 98 97 97 96 96 95 95 96 96 97 98 98 97 97 98 98 99
75 75 75 74 74 75 75 75 75 76 76 77 77 77 78 78 78 78 80 82 84 86 89 91 93 94 95 96 96 96 97 97 97 96 95 94 94 94 94 95 96 96 97 98 99 100 100 100 99 99 99 99 99 99 100 101 101 101 101 102 102 103 103
75 74 74 74 75 75 75 75 75 76 76 77 77 78 78 77 77 76 77 79 81 83 86 87 89 91 93 95 96 97 98 99 99 99 99 98 97 95 94 94 94 94 94 94 95 96 96 97 97 97 97 97 98 99 100 101 102 102 104 106 107 108 108
74 74 73 74 75 75 76 76 75 75 76 76 77 77 77 76 75 76 77 78 79 80 82 84 85 87 89 91 94 95 97 98 99 99 99 99 99 98 96 95 93 93 92 91 91 91 91 92 92 92 92 92 93 95 96 97 98 100 102 104 106 109 112
72 73 73 73 74 75 75 75 75 74 74 74 75 76 75 74 74 74 75 76 77 78 78 79 80 82 85 87 90 92 94 95 96 97 98 98 99 99 97 95 93 91 88 86 84 83 83 84 84 85 86 87 88 90 92 94 95 97 99 102 106 110 112
70 70 71 71 72 73 73 73 72 71 70 71 71 73 73 72 72 72 73 74 76 76 75 75 75 77 80 83 86 88 89 90 92 93 94 96 97 97 96 94 91 88 85 82 79 77 76 76 76 76 77 79 81 83 86 88 91 95 99 103 105 107 107
66 67 67 67 68 69 69 68 67 65 65 66 67 69 70 70 70 71 72 73 74 74 74 73 72 74 76 79 80 82 84 85 87 88 89 90 91 92 92 91 88 86 82 79 75 72 70 68 68 68 70 72 75 77 81 85 90 94 98 99 99 99 99
63 63 63 63 63 64 63 62 61 60 61 63 64 65 66 66 67 69 70 72 73 74 73 73 72 73 74 75 75 76 78 80 81 82 83 83 84 85 86 85 84 82 80 76 72 68 65 62 62 63 65 69 72 76 81 85 89 91 91 90 90 90 90
Wind_Direction
261 259 257 254 251 250 250 249 247 245 243 240 237 236 235 236 237 237 236 234 232 232 232 230 228 225 222 223 223 219 217 218 221 224 225 225 226 225 224 225 227 228 229 232 234 235 235 236 238 237 237 240 239 237 237 239 241 243 244 245 247 249 249
259 259 258 257 254 252 251 250 249 247 245 242 239 237 237 237 237 238 238 237 235 233 233 232 230 227 225 224 224 220 215 215 218 222 226 227 227 229 228 228 228 229 231 232 234 234 233 234 238 240 239 240 240 238 236 236 238 241 242 243 245 247 248
257 258 258 258 257 254 252 250 249 248 247 245 243 240 239 238 238 238 238 238 236 235 234 233 232 230 227 227 227 222 216 215 217 220 224 227 227 229 231 231 231 232 234 235 235 235 234 233 235 239 240 241 242 241 240 240 241 243 246 248 248 249 250
254 256 257 257 257 256 253 251 249 248 247 246 245 244 242 241 240 239 239 239 238 236 234 234 233 232 229 229 230 227 219 216 218 219 221 225 226 228 230 232 233 234 237 240 240 238 237 236 235 236 239 242 244 244 245 246 246 246 247 249 250 250 250
251 253 255 256 256 256 254 252 249 247 246 246 245 245 244 243 242 240 240 240 240 238 236 235 234 233 231 230 231 230 225 219 219 220 221 223 225 227 229 231 233 235 236 239 243 244 242 240 238 236 236 240 244 245 247 248 249 249 249 249 250 250 251
247 249 251 253 254 254 254 252 250 248 246 246 245 244 244 244 244 242 241 241 241 241 239 237 236 234 233 232 232 232 229 225 222 221 222 223 225 227 228 230 232 234 235 235 238 243 246 246 245 242 240 240 243 245 247 249 250 251 252 251 251 251 251
246 247 248 250 251 252 252 251 250 249 248 247 246 245 245 244 244 244 243 242 242 243 242 240 238 237 235 234 233 233 232 230 228 226 224 223 225 226 228 229 231 233 235 234 233 234 239 243 246 248 248 246 246 248 250 251 252 252 253 253 254 253 254
248 247 248 248 249 250 250 250 249 249 248 248 247 247 246 245 244 244 243 243 243 243 244 243 242 240 238 237 236 235 234 233 233 232 230 227 226 226 227 229 230 232 234 235 234 232 233 235 239 244 248 250 251 252 252 253 255 255 255 255 256 256 257
251 250 249 248 248 248 249 249 249 248 248 248 248 248 248 247 246 245 244 244 243 243 244 244 244 243 242 240 238 237 236 236 235 235 235 234 231 229 228 228 229 231 233 235 236 235 234 234 235 237 242 246 250 252 253 255 256 257 258 259 259 259 260
253 252 251 250 249 248 248 248 249 249 248 248 248 248 248 249 248 248 246 245 244 244 243 244 244 245 245 244 242 240 239 238 237 237 237 237 236 234 231 229 229 230 231 233 234 236 237 237 237 238 240 243 246 248 251 253 255 256 257 259 260 260 261
253 252 252 251 249 248 247 247 247 248 248 248 248 248 248 248 249 249 249 248 246 245 244 244 244 244 245 246 245 243 241 240 239 239 238 239 239 238 236 233 232 231 232 232 233 234 236 238 239 239 241 242 244 246 248 250 252 254 255 257 258 259 260
253 252 251 251 250 248 247 247 246 246 247 247 248 248 248 247 247 248 248 249 248 248 247 245 245 244 244 245 245 245 245 243 242 241 240 240 240 240 240 238 236 234 235 235 236 235 234 235 237 238 240 241 242 244 246 247 249 250 252 253 255 256 258
255 254 253 252 251 250 249 248 247 246 245 245 246 247 248 247 247 247 247 248 248 249 248 247 246 245 245 245 244 245 245 245 245 244 243 242 242 241 242 241 240 239 238 238 239 239 238 237 237 238 239 240 241 242 244 246 248 249 249 249 251 252 254
257 255 254 253 252 251 250 249 248 247 246 246 245 245 246 247 247 247 247 247 247 248 248 248 247 247 246 245 244 244 244 244 244 244 244 244 244 243 243 243 243 243 242 242 242 242 242 242 241 241 240 241 242 243 245 247 249 252 251 249 250 250 250
258 257 255 254 253 252 251 250 249 248 248 247 246 246 246 246 246 246 246 246 247 247 248 248 248 247 247 246 245 244 244 243 243 243 243 244 244 244 244 244 244 244 244 245 245 245 245 245 245 245 245 244 244 244 246 248 250 253 254 253 252 253 252
257 257 256 255 254 254 253 252 251 250 248 247 247 247 247 246 246 246 246 246 246 246 246 247 247 247 247 247 247 246 245 244 244 243 242 243 243 243 244 244 244 245 245 245 246 246 246 247 247 247 248 248 248 247 247 248 250 253 255 255 254 254 255
257 257 256 256 255 254 253 253 253 252 251 250 249 248 248 247 247 247 246 246 245 245 245 245 246 246 247 247 247 248 247 247 246 246 245 244 243 243 243 244 244 244 245 245 246 246 247 247 247 248 248 249 249 250 249 249 250 252 254 256 256 256 256
257 256 256 256 256 254 252 252 252 252 252 252 252 251 250 249 249 248 248 247 247 246 245 245 245 245 245 246 247 247 248 248 248 248 247 247 246 246 245 245 245 245 245 246 246 246 247 247 248 248 248 249 249 249 249 249 250 251 252 254 255 256 256
256 255 255 256 256 255 253 252 251 251 251 251 252 253 252 251 250 250 249 249 248 248 247 246 245 245 245 245 246 246 247 247 248 248 248 248 248 248 248 248 247 247 247 247 247 247 247 248 248 249 249 249 249 249 249 249 250 250 251 253 255 256 256
256 255 255 255 255 256 255 253 251 250 250 250 251 251 251 251 251 251 250 250 249 249 248 247 247 246 246 246 246 246 246 246 247 247 248 248 248 248 248 249 249 249 249 249 250 249 249 249 249 250 250 250 250 250 250 250 250 250 251 252 254 255 256
259 258 256 256 255 255 255 254 253 252 251 250 250 251 252 252 252 252 251 251 250 250 249 248 247 247 247 247 246 246 246 246 246 247 247 247 248 248 248 249 249 249 250 250 251 251 251 251 251 251 252 252 252 252 252 252 252 251 252 252 253 255 256
262 260 259 258 257 256 255 255 254 253 252 251 250 250 251 251 250 251 251 250 250 249 249 249 248 247 247 248 247 247 247 247 247 247 247 247 247 248 248 249 249 249 250 250 251 251 252 252 252 253 253 253 254 254 254 254 254 253 253 253 254 255 256
264 263 261 260 259 258 256 255 254 253 251 250 249 248 249 249 249 249 250 250 249 249 249 249 249 248 248 249 249 249 248 248 248 247 247 247 247 248 248 248 249 249 249 250 250 251 252 252 252 253 253 254 254 254 255 255 255 255 255 255 255 256 256
264 264 263 262 260 259 258 256 255 253 251 250 249 248 249 250 250 250 250 250 251 251 251 251 250 249 249 249 249 249 249 249 249 249 249 248 248 249 248 249 249 249 249 249 250 250 251 251 252 252 253 253 254 254 254 254 255 255 255 255 256 256 256
263 263 263 263 262 261 259 258 256 254 252 250 249 248 248 249 250 251 252 252 252 252 252 252 252 251 250 250 250 250 250 250 250 250 250 250 250 250 250 250 250 250 250 250 250 251 251 251 252 252 253 253 254 254 254 254 255 255 255 255 255 255 256
262 262 262 262 262 262 261 260 258 256 254 252 251 249 248 248 248 250 251 252 253 253 253 254 254 253 252 251 251 251 251 251 251 251 251 251 251 251 251 251 252 252 252 252 252 252 252 253 253 253 254 254 254 255 255 255 255 255 255 255 255 255 256
262 262 262 262 261 261 261 260 259 258 257 255 254 252 250 249 248 248 249 250 252 253 253 254 255 255 255 253 252 252 251 252 252 253 253 253 253 253 253 253 253 253 253 254 254 254 254 254 254 255 255 255 255 255 256 256 256 256 256 256 256 256 256
261 261 261 262 262 262 261 260 260 259 258 256 255 254 253 252 250 249 249 249 250 251 253 253 254 255 256 256 255 254 253 252 252 252 253 253 254 254 254 254 254 254 255 255 255 255 255 255 255 256 256 256 256 257 257 257 257 257 257 257 256 256 256
260 260 260 260 261 261 261 261 261 260 259 258 256 255 254 254 253 252 251 250 250 251 252 253 253 254 255 257 258 258 257 256 255 254 253 254 254 254 255 255 255 255 256 256 256 257 257 257 257 257 257 257 258 258 258 258 258 258 258 257 257 257 256
260 260 260 260 259 259 259 260 260 261 261 260 259 257 256 255 254 254 253 253 252 251 252 252 253 254 254 255 257 258 259 259 259 258 257 256 256 256 257 257 257 257 257 257 258 258 258 259 259 259 259 259 259 260 260 260 260 259 259 259 258 258 257
259 259 260 260 260 260 259 259 259 260 260 260 260 260 259 258 256 255 255 254 254 253 252 253 253 254 254 255 256 257 258 259 260 260 260 260 259 259 259 259 259 259 259 259 259 259 259 259 260 260 260 260 261 261 261 261 261 261 261 261 260 259 258
258 258 258 259 259 259 259 259 259 260 260 260 260 260 260 260 259 258 256 255 254 254 253 253 253 253 254 255 255 256 257 258 259 260 261 262 262 262 261 261 261 261 261 261 260 261 261 261 261 261 261 261 261 261 262 262 262 262 262 261 261 261 260
258 258 258 258 258 258 258 258 258 259 260 260 260 260 260 260 260 259 258 256 255 254 253 254 254 254 254 255 255 256 257 258 259 260 261 262 263 264 264 264 264 264 264 263 263 263 263 263 263 263 263 263 263 263 263 262 262 262 262 261 261 260 260
258 258 257 257 257 257 257 257 257 258 258 259 259 260 260 260 259 259 259 258 258 257 255 255 255 255 255 255 255 256 257 257 258 259 260 261 263 264 265 266 266 267 267 267 266 266 266 266 265 265 265 265 264 264 264 263 262 262 262 261 260 259 258
258 257 257 257 257 257 257 257 257 257 257 257 258 258 259 259 259 259 259 259 259 259 259 257 256 256 256 256 256 257 257 258 259 259 260 261 262 264 265 267 268 269 269 270 270 269 269 268 267 266 266 265 264 263 262 261 261 260 260 259 259 259 260
259 258 258 257 257 257 257 257 257 257 257 257 256 256 257 258 258 259 260 260 260 261 261 260 259 258 257 257 257 258 258 259 259 260 261 261 263 264 266 268 269 271 272 272 272 271 270 268 266 265 263 262 261 260 259 258 257 257 258 259 261 262 264
260 259 259 258 258 258 258 258 257 256 256 256 255 255 256 256 256 257 258 259 260 261 262 261 261 260 259 259 259 259 260 260 261 262 263 263 264 265 266 268 269 271 272 273 273 272 270 268 265 263 261 259 258 257 257 256 257 258 260 263 265 266 267
Height
10605 10606 10608 10609 10610 10612 10613 10614 10615 10617 10618 10620 10621 10622 10624 10625 10626 10628 10630 10631 10633 10634 10636 10637 10639 10641 10643 10646 10649 10652 10654 10656 10658 10659 10661 10662 10664 10666 10667 10669 10671 10672 10674 10676 10678 10680 10682 10684 10685 10686 10687 10689 10690 10692 10693 10695 10696 10697 10698 10699 10700 10701 10702
10600 10601 10603 10604 10606 10608 10609 10610 10611 10613 10614 10615 10617 10618 10619 10621 10622 10623 10625 10627 10628 10630 10631 10632 10634 10636 10638 10640 10643 10646 10648 10650 10653 10654 10656 10658 10659 10661 10663 10665 10666 10668 10670 10672 10673 10675 10677 10679 10680 10681 10683 10684 10685 10687 10688 10689 10690 10691 10693 10694 10695 10696 10698
10595 10596 10598 10600 10601 10603 10605 10606 10607 10608 10609 10611 10612 10614 10615 10616 10617 10619 10620 10622 10623 10625 10626 10627 10629 10631 10632 10634 10637 10640 10642 10645 10647 10649 10651 10652 10655 10656 10658 10660 10662 10663 10665 10667 10669 10670 10672 10675 10676 10677 10678 10679 10680 10682 10683 10683 10685 10687 10688 10689 10691 10692 10694
10591 10592 10593 10594 10596 10598 10599 10601 10602 10604 10605 10606 10607 10609 10611 10612 10613 10614 10615 10616 10618 10620 10621 10622 10624 10625 10627 10629 10631 10633 10636 10639 10641 10644 10645 10647 10649 10651 10653 10655 10657 10659 10660 10662 10663 10665 10667 10669 10671 10672 10673 10674 10675 10677 10678 10679 10681 10682 10683 10684 10686 10687 10689
10587 10588 10588 10590 10591 10592 10594 10595 10597 10598 10599 10601 10602 10604 10606 10607 10608 10610 10611 10612 10613 10614 10616 10618 10619 10620 10622 10624 10625 10627 10630 10633 10635 10638 10640 10641 10643 10646 10647 10649 10651 10653 10655 10657 10658 10660 10661 10663 10665 10667 10668 10669 10670 10671 10673 10675 10676 10676 10677 10679 10681 10682 10684
10583 10583 10584 10585 10586 10587 10588 10590 10591 10593 10594 10595 10597 10599 10600 10602 10603 10605 10606 10607 10608 10610 10611 10613 10614 10616 10617 10619 10620 10622 10624 10626 10628 10631 10633 10635 10637 10639 10641 10643 10645 10647 10649 10652 10654 10655 10656 10658 10659 10661 10663 10664 10665 10666 10668 10669 10670 10671 10671 10673 10675 10677 10678
10578 10579 10580 10580 10581 10582 10583 10584 10585 10587 10588 10590 10592 10593 10595 10597 10598 10600 10601 10603 10604 10605 10606 10608 10609 10611 10612 10614 10615 10617 10618 10620 10622 10624 10626 10628 10630 10633 10635 10637 10639 10641 10643 10645 10648 10650 10651 10652 10653 10655 10656 10658 10659 10660 10661 10663 10664 10665 10666 10668 10669 10671 10673
10573 10574 10574 10575 10576 10577 10577 10578 10579 10581 10582 10584 10586 10587 10589 10591 10592 10594 10596 10598 10599 10601 10602 10603 10605 10606 10608 10609 10610 10612 10613 10614 10616 10618 10620 10622 10624 10626 10629 10631 10633 10635 10637 10639 10641 10644 10646 10647 10648 10649 10650 10651 10653 10654 10655 10656 10657 10658 10659 10661 10662 10664 10667
10567 10568 10569 10570 10571 10572 10572 10573 10574 10575 10576 10578 10580 10582 10583 10585 10587 10588 10590 10592 10594 10596 10597 10598 10600 10601 10602 10604 10605 10606 10608 10609 10610 10612 10613 10616 10618 10620 10622 10624 10626 10629 10631 10633 10635 10637 10640 10641 10643 10644 10645 10646 10647 10648 10649 10650 10650 10651 10653 10654 10656 10658 10660
10560 10562 10563 10564 10565 10566 10567 10568 10569 10570 10571 10572 10574 10576 10578 10579 10581 10582 10584 10586 10588 10590 10591 10593 10594 10595 10596 10598 10599 10601 10602 10603 10605 10606 10607 10609 10611 10613 10615 10617 10619 10621 10623 10626 10628 10630 10633 10635 10637 10638 10639 10641 10641 10642 10643 10644 10643 10645 10647 10648 10649 10652 10654
10552 10554 10555 10556 10557 10559 10560 10561 10563 10564 10565 10567 10568 10570 10572 10573 10575 10576 10578 10579 10581 10583 10585 10586 10588 10589 10590 10591 10593 10594 10596 10597 10599 10600 10601 10603 10604 10606 10608 10610 10612 10614 10616 10618 10620 10623 10625 10627 10629 10631 10633 10634 10635 10636 10637 10637 10636 10638 10641 10642 10643 10645 10647
10544 10545 10547 10547 10549 10550 10552 10554 10556 10557 10559 10560 10562 10563 10565 10567 10568 10570 10571 10572 10574 10575 10577 10579 10580 10582 10583 10584 10586 10587 10589 10590 10592 10593 10595 10596 10597 10599 10601 10603 10605 10607 10609 10611 10613 10615 10617 10619 10621 10623 10625 10626 10628 10628 10629 10629 10628 10629 10633 10635 10636 10639 10640
10536 10538 10539 10539 10540 10542 10544 10546 10548 10550 10552 10554 10555 10557 10558 10559 10561 10562 10564 10565 10566 10568 10569 10571 10573 10574 10575 10576 10577 10579 10581 10582 10584 10585 10587 10589 10591 10593 10595 10597 10599 10600 10602 10603 10605 10607 10608 10611 10613 10615 10617 10618 10620 10621 10622 10622 10620 10619 10625 10628 10628 10631 10633
10527 10529 10530 10531 10532 10534 10536 10538 10541 10543 10544 10546 10548 10549 10550 10552 10553 10554 10556 10558 10559 10560 10562 10563 10564 10565 10566 10567 10568 10569 10571 10573 10574 10576 10579 10581 10583 10586 10588 10590 10591 10593 10594 10596 10597 10599 10600 10602 10604 10606 10608 10610 10612 10614 10615 10616 10614 10611 10615 10620 10621 10622 10625
10518 10519 10521 10522 10523 10525 10528 10530 10532 10534 10536 10538 10540 10541 10542 10543 10544 10546 10548 10550 10551 10552 10553 10554 10555 10556 10557 10557 10558 10559 10561 10563 10564 10566 10569 10571 10574 10576 10578 10580 10582 10584 10585 10587 10589 10591 10592 10594 10596 10598 10600 10602 10604 10607 10608 10609 10608 10605 10605 10610 10613 10613 10616
10509 10510 10511 10512 10514 10517 10520 10522 10524 10525 10527 10529 10531 10532 10534 10535 10536 10537 10539 10541 10542 10543 10544 10545 10546 10547 10547 10548 10549 10551 10552 10554 10556 10558 10560 10562 10564 10566 10568 10570 10572 10574 10576 10578 10580 10582 10584 10586 10588 10590 10591 10594 10595 10598 10600 10601 10601 10600 10598 10599 10602 10604 10607
10499 10500 10500 10501 10505 10508 10510 10513 10514 10516 10518 10521 10522 10524 10526 10526 10527 10528 10530 10531 10532 10533 10534 10535 10536 10537 10538 10539 10541 10542 10544 10546 10548 10550 10552 10554 10556 10557 10559 10561 10563 10565 10566 10569 10571 10573 10575 10577 10579 10581 10582 10585 10587 10589 10591 10593 10594 10593 10592 10590 10592 10595 10597
10489 10490 10490 10492 10493 10496 10500 10503 10505 10507 10510 10512 10513 10515 10516 10517 10518 10519 10520 10521 10522 10523 10524 10525 10526 10527 10528 10530 10532 10533 10535 10538 10540 10542 10544 10546 10548 10550 10552 10553 10555 10557 10558 10560 10562 10564 10566 10568 10569 10571 10573 10575 10577 10579 10582 10584 10585 10586 10586 10584 10582 10585 10588
10477 10479 10480 10481 10481 10484 10489 10493 10496 10498 10500 10503 10504 10505 10505 10506 10507 10508 10509 10511 10511 10512 10513 10515 10516 10517 10519 10521 10523 10525 10527 10529 10531 10533 10534 10537 10539 10541 10543 10545 10547 10549 10550 10552 10554 10555 10557 10559 10560 10562 10563 10564 10567 10570 10572 10574 10576 10578 10579 10577 10575 10575 10578
10466 10468 10470 10470 10471 10474 10478 10481 10484 10487 10490 10495 10494 10492 10493 10495 10496 10497 10498 10499 10500 10500 10501 10503 10505 10507 10510 10512 10514 10516 10518 10519 10521 10523 10525 10527 10529 10531 10533 10535 10537 10539 10541 10542 10544 10546 10548 10550 10551 10552 10553 10555 10557 10560 10562 10564 10567 10569 10570 10570 10568 10567 10568
10454 10457 10459 10460 10462 10464 10466 10469 10472 10476 10482 10485 10482 10482 10485 10485 10484 10485 10485 10486 10488 10487 10488 10490 10493 10496 10499 10501 10502 10504 10507 10509 10511 10513 10515 10517 10519 10521 10522 10524 10526 10528 10531 10532 10533 10535 10537 10539 10541 10542 10543 10545 10548 10550 10552 10554 10557 10559 10561 10562 10561 10559 10559
10443 10446 10448 10450 10452 10454 10456 10459 10461 10465 10470 10469 10468 10472 10472 10468 10469 10472 10470 10471 10472 10472 10472 10476 10481 10485 10488 10489 10491 10493 10496 10498 10501 10503 10505 10507 10509 10511 10512 10514 10516 10518 10520 10522 10523 10525 10527 10528 10530 10532 10532 10535 10538 10540 10542 10544 10546 10548 10550 10552 10553 10551 10551
10432 10434 10437 10440 10441 10442 10445 10448 10450 10454 10456 10454 10455 10459 10456 10454 10457 10459 10456 10456 10458 10459 10461 10464 10470 10474 10477 10478 10480 10482 10484 10487 10489 10491 10494 10496 10498 10500 10501 10503 10505 10507 10509 10511 10512 10514 10516 10517 10519 10521 10522 10524 10527 10529 10531 10533 10534 10536 10538 10541 10542 10542 10542
10423 10424 10425 10428 10430 10432 10434 10437 10439 10442 10444 10444 10445 10447 10446 10445 10447 10447 10446 10447 10449 10450 10451 10453 10458 10463 10465 10467 10468 10470 10472 10475 10477 10480 10482 10484 10486 10488 10490 10492 10494 10496 10497 10499 10501 10503 10504 10506 10508 10510 10512 10513 10515 10518 10520 10521 10522 10524 10526 10529 10530 10530 10531
10412 10414 10415 10416 10418 10421 10423 10425 10427 10430 10432 10432 10434 10436 10436 10436 10436 10436 10437 10438 10439 10440 10441 10443 10446 10449 10452 10454 10455 10457 10460 10463 10465 10467 10469 10471 10474 10475 10478 10480 10482 10483 10485 10487 10489 10491 10493 10495 10496 10498 10501 10503 10504 10506 10507 10509 10510 10512 10514 10516 10518 10519 10519
10402 10403 10404 10406 10407 10409 10411 10413 10415 10418 10420 10422 10423 10425 10425 10425 10425 10425 10426 10427 10428 10429 10431 10433 10434 10436 10439 10441 10443 10446 10449 10451 10453 10455 10457 10460 10462 10464 10466 10467 10469 10471 10473 10475 10478 10480 10482 10484 10485 10487 10489 10491 10493 10494 10495 10496 10498 10499 10501 10503 10506 10508 10507
10391 10392 10394 10395 10397 10399 10400 10402 10404 10405 10408 10411 10412 10413 10413 10414 10415 10415 10415 10415 10416 10418 10421 10423 10423 10424 10426 10428 10431 10434 10436 10438 10441 10443 10445 10447 10449 10451 10453 10455 10457 10459 10460 10463 10465 10468 10470 10472 10474 10475 10477 10479 10480 10481 10482 10483 10484 10486 10488 10490 10493 10495 10494
10380 10382 10383 10385 10386 10387 10389 10390 10391 10393 10396 10399 10401 10401 10401 10402 10403 10404 10404 10404 10405 10408 10410 10412 10412 10413 10414 10416 10419 10421 10423 10426 10428 10430 10432 10434 10436 10438 10440 10442 10444 10446 10448 10450 10452 10454 10457 10460 10462 10463 10464 10466 10467 10468 10469 10469 10470 10472 10474 10476 10479 10481 10481
10370 10372 10373 10374 10375 10376 10376 10377 10378 10380 10383 10386 10388 10389 10389 10389 10390 10392 10393 10394 10396 10398 10399 10399 10400 10402 10404 10406 10407 10408 10410 10413 10415 10417 10419 10422 10424 10425 10427 10429 10432 10434 10436 10438 10439 10441 10443 10446 10449 10451 10452 10453 10454 10455 10456 10456 10456 10457 10459 10461 10464 10465 10465
10360 10361 10362 10363 10364 10365 10365 10366 10367 10368 10369 10372 10374 10375 10377 10378 10379 10380 10382 10384 10386 10388 10387 10388 10389 10392 10395 10396 10397 10397 10398 10399 10401 10404 10407 10409 10411 10413 10414 10416 10419 10422 10424 10425 10426 10428 10430 10432 10435 10438 10439 10440 10441 10442 10442 10441 10440 10442 10444 10447 10448 10448 10449
10349 10351 10351 10352 10353 10353 10354 10356 10357 10357 10358 10360 10361 10362 10363 10365 10367 10370 10372 10373 10375 10376 10376 10378 10380 10382 10384 10385 10386 10387 10387 10387 10389 10391 10394 10396 10398 10400 10402 10403 10405 10408 10410 10411 10412 10414 10416 10418 10421 10424 10426 10427 10428 10428 10426 10424 10425 10428 10430 10430 10430 10431 10432
10338 10340 10341 10342 10342 10342 10343 10344 10346 10347 10347 10348 10349 10350 10351 10353 10356 10359 10360 10361 10362 10363 10364 10367 10369 10371 10372 10374 10375 10375 10375 10376 10378 10379 10380 10382 10384 10386 10388 10389 10391 10393 10395 10397 10399 10401 10402 10404 10407 10409 10411 10413 10414 10412 10409 10408 10411 10412 10412 10412 10412 10412 10413
10326 10328 10329 10330 10330 10331 10332 10333 10335 10336 10337 10338 10338 10339 10341 10343 10345 10346 10346 10347 10349 10351 10352 10355 10358 10359 10361 10362 10363 10363 10364 10365 10367 10368 10369 10370 10371 10372 10373 10375 10377 10378 10380 10383 10385 10387 10389 10390 10392 10394 10396 10397 10397 10395 10392 10393 10395 10394 10393 10394 10394 10393 10392
10315 10316 10317 10318 10318 10319 10320 10321 10324 10326 10327 10328 10328 10328 10330 10333 10334 10334 10335 10335 10336 10339 10342 10345 10347 10348 10349 10350 10350 10351 10353 10354 10356 10357 10358 10359 10359 10360 10360 10362 10363 10364 10366 10369 10371 10374 10376 10377 10378 10380 10381 10381 10380 10378 10377 10378 10378 10377 10377 10376 10374 10372 10372
10303 10304 10305 10306 10307 10307 10308 10310 10313 10316 10317 10318 10318 10318 10320 10322 10323 10323 10325 10325 10325 10327 10330 10333 10336 10337 10338 10338 10338 10340 10341 10342 10343 10345 10347 10347 10348 10348 10349 10349 10350 10352 10353 10355 10358 10360 10362 10363 10364 10366 10365 10365 10364 10363 10363 10363 10363 10361 10360 10358 10357 10358 10359
10292 10292 10294 10295 10296 10297 10298 10300 10303 10306 10307 10308 10308 10308 10310 10312 10314 10314 10315 10315 10315 10317 10319 10322 10324 10326 10326 10326 10328 10329 10330 10331 10332 10333 10336 10337 10337 10337 10338 10338 10339 10340 10341 10343 10345 10346 10348 10350 10351 10351 10350 10349 10349 10348 10348 10347 10346 10345 10344 10345 10347 10350 10350
10280 10281 10283 10285 10286 10287 10289 10291 10293 10296 10297 10297 10297 10299 10300 10303 10304 10305 10306 10306 10306 10307 10309 10310 10312 10314 10315 10316 10318 10319 10320 10320 10322 10323 10325 10326 10327 10327 10328 10328 10328 10329 10330 10331 10332 10334 10335 10337 10337 10337 10336 10334 10334 10333 10332 10331 10331 10332 10335 10338 10339 10340 10339